EW7074 Weather Reports


Display with metric or nautical units.
time (UTC)temp
F
wind
direction
speed
MPH
gust
MPH
rain 1hr
in
rain 24hr
in
rain mn
in
humidity
%
barometer
mb
20260903135326 76 0.0 0.0 0.00 0.00 0.00 58
20260903134304 76 354 1.0 7.0 0.00 0.00 0.00 58 1012.8
20260903133745 75 0.0 0.0 0.00 0.00 0.00 59
20260903132818 75 357 1.0 5.0 0.00 0.00 0.00 60 1013.0
20260903132307 74 0.0 0.0 0.00 0.00 0.00 61
20260903131613 74 326 1.0 4.0 0.00 0.00 0.00 61 1013.2
20260903130833 73 0.0 0.0 0.00 0.00 0.00 63
20260903130035 73 298 1.0 4.0 0.00 0.00 0.00 63 1013.5
20260903125248 71 0.0 0.0 0.00 0.00 0.00 67
20260903124226 71 302 0.0 1.0 0.00 0.00 0.00 68 1013.7
20260903123726 69 320 0.0 0.0 0.00 0.00 0.00 71 1013.7
20260903123000 69 321 0.0 1.0 0.00 0.00 0.00 71 1013.8
20260903122227 67 227 0.0 0.0 0.00 0.00 0.00 74 1013.8
20260903121252 67 226 0.0 0.0 0.00 0.00 0.00 74 1013.9
20260903120749 66 0.0 0.0 0.00 0.00 0.00 76
20260903115928 66 212 0.0 0.0 0.00 0.00 0.00 76 1014.0
20260903115408 65 213 0.0 0.0 0.00 0.00 0.00 77 1014.0
20260903114908 64 213 0.0 0.0 0.00 0.00 0.00 79 1014.0
20260903114331 64 213 0.0 0.0 0.00 0.00 0.00 79 1014.0
20260903113831 63 0.0 0.0 0.00 0.00 0.00 80
20260903112758 62 213 0.0 0.0 0.00 0.00 0.00 81 1014.0
20260903112516 61 0.0 0.0 0.00 0.00 0.00 82
20260903111314 61 213 0.0 0.0 0.00 0.00 0.00 82 1014.0
20260903110803 60 0.0 0.0 0.00 0.00 0.00 83
20260903105831 60 213 0.0 0.0 0.00 0.00 0.00 83 1013.9
20260903105320 60 0.0 0.0 0.00 0.00 0.00 83
20260903104354 60 165 0.0 0.0 0.00 0.00 0.00 83 1013.6
20260903104341 60 0.0 0.0 0.00 0.00 0.00 82
20260903102810 60 85 0.0 1.0 0.00 0.00 0.00 82 1013.3
20260903102308 59 0.0 0.0 0.00 0.00 0.00 82
20260903101243 59 214 0.0 0.0 0.00 0.00 0.00 82 1013.0
20260903100741 59 0.0 0.0 0.00 0.00 0.00 82
20260903095928 59 214 0.0 1.0 0.00 0.00 0.00 82 1012.8
20260903095416 59 214 0.0 1.0 0.00 0.00 0.00 82 1012.8
20260903095136 59 227 0.0 1.0 0.00 0.00 0.00 83 1012.7
20260903094347 58 226 3.0 5.0 0.00 0.00 0.00 83 1012.7
20260903093833 58 0.0 0.0 0.00 0.00 0.00 84
20260903092821 58 220 6.0 8.0 0.00 0.00 0.00 83 1012.1
20260903092319 58 0.0 0.0 0.00 0.00 0.00 84
20260903091320 58 205 4.0 12.0 0.00 0.00 0.00 83 1011.2
20260903090756 57 0.0 0.0 0.00 0.00 0.00 84
20260903085825 57 215 1.0 6.0 0.00 0.00 0.00 83 1009.9
20260903085537 58 0.0 0.0 0.00 0.00 0.00 83
20260903084522 58 185 1.0 2.0 0.00 0.00 0.00 83 1009.1
20260903083751 57 0.0 0.0 0.00 0.00 0.00 85
20260903082825 57 233 1.0 5.0 0.00 0.00 0.00 85 1008.9
20260903082326 56 0.0 0.0 0.00 0.00 0.00 86
20260903081539 56 216 1.0 5.0 0.00 0.00 0.00 86 1008.9
20260903080806 56 0.0 0.0 0.00 0.00 0.00 86
20260903075545 56 213 1.0 6.0 0.00 0.00 0.00 86 1008.9
20260903075034 56 211 0.0 0.0 0.00 0.00 0.00 87
20260903074304 56 211 1.0 3.0 0.00 0.00 0.00 87 1009.0
20260903073754 56 0.0 0.0 0.00 0.00 0.00 88
20260903072831 56 185 1.0 5.0 0.00 0.00 0.00 88 1009.2
20260903072328 55 0.0 0.0 0.00 0.00 0.00 90
20260903071537 55 231 0.0 0.0 0.00 0.00 0.00 90 1009.6
20260903070807 55 209 0.0 0.0 0.00 0.00 0.00 90 1009.6
20260903065755 55 216 0.0 0.0 0.00 0.00 0.00 90 1009.9
20260903065520 55 0.0 0.0 0.00 0.00 0.00 91
20260903064231 55 214 0.0 4.0 0.00 0.00 0.00 91 1010.1
20260903063727 54 219 0.0 0.0 0.00 0.00 0.00 92 1010.0
20260903062822 54 208 0.0 0.0 0.00 0.00 0.00 92 1010.2
20260903062550 53 0.0 0.0 0.00 0.00 0.00 92
20260903061300 53 204 0.0 0.0 0.00 0.00 0.00 91 1010.5
20260903060758 52 0.0 0.0 0.00 0.00 0.00 91
20260903055745 52 190 0.0 0.0 0.00 0.00 0.00 91 1010.8
20260903055244 53 84 0.0 0.0 0.00 0.00 0.00 91 1010.8
20260903054334 53 84 0.0 0.0 0.00 0.00 0.00 91 1011.0
20260903053831 53 0.0 0.0 0.00 0.00 0.00 91
20260903052828 53 84 0.0 0.0 0.00 0.00 0.00 91 1011.3
20260903052327 52 0.0 0.0 0.00 0.00 0.00 91
20260903051254 53 83 0.0 0.0 0.00 0.00 0.00 91 1011.6
20260903050747 53 0.0 0.0 0.00 0.00 0.00 91
20260903045825 53 83 0.0 0.0 0.00 0.00 0.00 91 1011.8
20260903045324 53 0.0 0.0 0.00 0.00 0.00 91
20260903044256 53 83 0.0 0.0 0.00 0.00 0.00 91 1012.1
20260903043739 53 0.0 0.0 0.00 0.00 0.00 91
20260903042516 54 83 0.0 0.0 0.00 0.00 0.00 91 1012.6
20260903042018 54 0.0 1.0 0.00 0.00 0.00 91
20260903041333 54 83 0.0 1.0 0.00 0.00 0.00 91 1012.6
20260903040817 54 0.0 0.0 0.00 0.00 0.00 91
20260903035754 54 81 0.0 0.0 0.00 0.00 0.00 91 1013.1
20260903035242 54 0.0 0.0 0.00 0.00 0.00 90
20260903033731 55 0.0 0.0 0.00 0.00 0.00 90
20260903032820 55 77 0.0 1.0 0.00 0.00 0.00 90 1013.6
20260903032318 55 0.0 0.0 0.00 0.00 0.00 90
20260903031344 55 75 0.0 0.0 0.00 0.00 0.00 90 1013.7
20260903030845 56 0.0 0.0 0.00 0.00 0.00 89
20260903025812 56 75 0.0 0.0 0.00 0.00 0.01 89 1013.8
20260903025252 56 0.0 0.0 0.00 0.00 0.01 89
20260903024232 57 74 0.0 2.0 0.00 0.00 0.01 89 1014.0
20260903023729 57 76 1.0 2.0 0.00 0.00 0.01 89 1014.0
20260903022829 57 90 0.0 3.0 0.00 0.00 0.01 89 1014.1
20260903021412 58 0.0 0.0 0.00 0.00 0.01 89 1014.4
20260903021405 57 70 0.0 0.0 0.00 0.00 0.01 89 1014.3
20260903015749 58 77 1.0 1.0 0.00 0.00 0.01 89 1014.5
20260903015241 58 85 1.0 1.0 0.00 0.00 0.01 88 1014.6
20260903014254 58 94 0.0 2.0 0.00 0.00 0.01 88 1014.5
20260903013751 58 0.0 0.0 0.00 0.00 0.01 87
20260903012307 59 78 0.0 0.0 0.00 0.00 0.01 86 1014.6
20260903011311 59 78 0.0 2.0 0.00 0.00 0.01 86 1014.7
20260903010808 60 0.0 0.0 0.00 0.00 0.01 85
20260903005849 60 74 1.0 3.0 0.00 0.00 0.01 85 1014.8
20260903005342 60 86 0.0 3.0 0.00 0.00 0.01 85 1014.8
20260903004842 60 77 1.0 2.0 0.00 0.00 0.01 85 1014.8
20260903004612 60 80 1.0 2.0 0.00 0.00 0.01 85 1014.8
20260903003840 60 0.0 0.0 0.00 0.00 0.01 86
20260903003115 60 138 1.0 4.0 0.00 0.00 0.01 86 1014.8
20260903002854 60 138 1.0 4.0 0.00 0.00 0.01 86 1014.8
20260903001305 60 127 1.0 3.0 0.00 0.00 0.01 87 1014.8
20260903000757 61 0.0 0.0 0.00 0.00 0.01 87
20260902235834 61 69 2.0 6.0 0.00 0.00 0.01 87 1014.8
20260902235330 61 79 3.0 6.0 0.00 0.00 0.01 88 1014.9
20260902234319 61 83 1.0 3.0 0.00 0.00 0.01 88 1015.0
20260902234302 62 0.0 0.0 0.00 0.00 0.01 88
20260902232835 62 84 1.0 1.0 0.00 0.00 0.01 88 1014.9
20260902232326 62 0.0 0.0 0.00 0.00 0.01 88
20260902231353 62 91 1.0 2.0 0.00 0.00 0.01 88 1014.9
20260902230831 63 0.0 0.0 0.00 0.00 0.01 87
20260902225806 63 72 1.0 3.0 0.00 0.00 0.01 87 1014.8
20260902225250 63 0.0 0.0 0.00 0.00 0.01 86
20260902224304 64 70 1.0 3.0 0.00 0.00 0.01 86 1014.7
20260902223748 64 0.0 0.0 0.00 0.00 0.01 85
20260902223258 64 75 1.0 3.0 0.00 0.00 0.01 85 1014.6
20260902222254 64 0.0 0.0 0.00 0.00 0.01 84
20260902221736 64 87 0.0 0.0 0.00 0.00 0.01 83 1014.6
20260902220732 65 0.0 0.0 0.00 0.00 0.01 81
20260902215748 65 83 0.0 0.0 0.00 0.00 0.01 81 1014.7
20260902214229 67 91 0.0 0.0 0.00 0.00 0.01 77 1014.7
20260902214002 69 0.0 0.0 0.00 0.00 0.01 74
20260902212814 70 76 0.0 0.0 0.00 0.00 0.01 73 1014.7
20260902212301 72 0.0 0.0 0.00 0.00 0.01 70
20260902211337 72 70 0.0 0.0 0.00 0.00 0.01 69 1014.9
20260902210820 73 0.0 0.0 0.00 0.00 0.01 65
20260902210026 73 70 0.0 0.0 0.00 0.00 0.01 65 1015.1
20260902205247 73 0.0 0.0 0.00 0.00 0.01 64
20260902204250 74 70 0.0 0.0 0.00 0.00 0.01 62 1015.0
20260902203754 74 0.0 0.0 0.00 0.00 0.01 61
20260902202820 74 8 0.0 0.0 0.00 0.00 0.01 60 1015.0
20260902202538 74 0.0 0.0 0.00 0.00 0.01 60
20260902201519 75 1 0.0 0.0 0.00 0.00 0.01 60 1015.1
20260902200746 75 0.0 0.0 0.00 0.00 0.01 59
20260902195822 75 251 0.0 0.0 0.00 0.00 0.01 59 1015.2
20260902195320 74 0.0 0.0 0.00 0.00 0.01 60
20260902194801 74 251 0.0 0.0 0.00 0.00 0.01 59 1015.7
20260902193752 74 0.0 0.0 0.00 0.00 0.01 59
20260902192820 74 264 0.0 1.0 0.00 0.00 0.01 59 1015.6
20260902192542 75 0.0 0.0 0.00 0.00 0.01 59
20260902191621 75 317 0.0 0.0 0.00 0.00 0.01 59 1015.6
20260902190832 75 0.0 0.0 0.00 0.00 0.01 59
20260902190044 75 264 0.0 0.0 0.00 0.00 0.01 60 1015.6
20260902185313 75 0.0 0.0 0.00 0.00 0.01 61
20260902184300 75 320 0.0 2.0 0.00 0.00 0.01 60 1015.7
20260902183800 74 243 0.0 1.0 0.00 0.00 0.01 61 1015.8
20260902182905 75 288 0.0 2.0 0.00 0.00 0.01 61 1015.8
20260902182403 74 0.0 0.0 0.00 0.00 0.01 63
20260902181505 75 239 0.0 2.0 0.00 0.00 0.01 62 1016.0
20260902175828 74 303 0.0 2.0 0.00 0.00 0.01 63 1016.1
20260902175558 74 0.0 0.0 0.00 0.00 0.01 64
20260902174538 73 266 0.0 2.0 0.00 0.00 0.01 64 1016.4
20260902173804 73 0.0 0.0 0.00 0.00 0.01 65
20260902172743 73 312 0.0 2.0 0.00 0.00 0.01 65 1016.8
20260902172514 73 0.0 0.0 0.00 0.00 0.01 66
20260902171020 73 20 0.0 1.0 0.00 0.00 0.01 67 1016.9
20260902170515 72 0.0 2.0 0.00 0.00 0.01 67
20260902165840 72 274 1.0 2.0 0.00 0.00 0.01 67 1017.0
20260902165338 70 0.0 0.0 0.00 0.00 0.01 70
20260902164241 70 49 0.0 2.0 0.00 0.00 0.01 70 1017.3
20260902163739 69 0.0 0.0 0.00 0.00 0.01 72
20260902162814 69 224 0.0 2.0 0.00 0.00 0.01 72 1017.7
20260902162312 69 0.0 0.0 0.00 0.00 0.01 71
20260902161253 69 213 0.0 1.0 0.00 0.00 0.01 71 1017.9
20260902160738 69 0.0 0.0 0.00 0.00 0.01 71
20260902155813 69 249 0.0 2.0 0.00 0.00 0.01 72 1018.1
20260902155314 69 0.0 0.0 0.00 0.00 0.01 72
20260902154251 69 346 0.0 2.0 0.00 0.00 0.01 71 1018.5
20260902153744 68 0.0 0.0 0.00 0.00 0.01 76
20260902152814 67 235 0.0 2.0 0.00 0.00 0.01 75 1018.8
20260902152308 65 0.0 0.0 0.00 0.00 0.01 79
20260902151340 65 239 0.0 0.0 0.00 0.00 0.01 78 1018.9
20260902150817 66 0.0 0.0 0.00 0.00 0.01 77
20260902145755 66 318 1.0 3.0 0.00 0.00 0.01 77 1019.0
20260902145254 65 0.0 0.0 0.00 0.00 0.01 77
20260902144239 66 229 0.0 4.0 0.00 0.00 0.01 77 1019.2
20260902143735 65 284 0.0 0.0 0.00 0.00 0.01 79 1019.2
20260902142822 65 281 0.0 2.0 0.00 0.00 0.01 79 1019.3
20260902142309 63 0.0 0.0 0.00 0.00 0.01 81
20260902141339 63 216 0.0 3.0 0.00 0.00 0.01 81 1019.4
20260902140826 63 254 1.0 3.0 0.00 0.00 0.01 81 1019.5
20260902140317 62 249 1.0 4.0 0.00 0.00 0.01 81 1019.5
20260902135804 62 219 1.0 4.0 0.00 0.00 0.01 81 1019.6